Location: Campillo
(40.8621°N, 4.2488°W)
Time: 13:04:45
(UTC+00:00)

USA 308 - Pass Details

Date: 26 September 2021
Orbit: 566 x 573 km, 54.0° (Epoch: 23 September)

Event Time Altitude Azimuth Distance (km) Brightness Sun altitude
Rises 21:03:11 0° 312° (NW) 2,773 7.5 -32.8°
Reaches altitude 10° 21:05:29 10° 318° (NW) 1,874 6.3 -33.1°
Enters shadow 21:06:48 19° 323° (NW) 1,386 5.4 -33.3°
